FW3899 Weather Reports


time (UTC)temp
C
wind
direction
speed
KPH
gust
KPH
rain 1hr
cm
rain 24hr
cm
rain mn
cm
humidity
%
barometer
mb
20260506134503 8 268 11.3 17.7 0.08 1.04 0.97 95 1008.2
20260506133004 8 245 9.7 19.3 0.15 1.04 0.97 96 1008.1
20260506131502 8 284 9.7 20.9 0.20 1.04 0.97 96 1008.0
20260506130002 8 236 9.7 22.5 0.23 0.99 0.91 96 1007.9
20260506124600 8 278 17.7 27.4 0.33 0.97 0.89 95 1007.7
20260506123100 8 269 17.7 32.2 0.51 0.89 0.81 95 1007.5
20260506121603 8 245 19.3 38.6 0.64 0.84 0.76 95 1007.2
20260506114557 9 239 22.5 45.1 0.53 0.64 0.56 93 1007.0
20260506113104 10 275 14.5 27.4 0.30 0.41 0.33 93 1006.8
20260506111554 11 264 9.7 14.5 0.10 0.20 0.13 93 1006.4
20260506110100 11 276 11.3 16.1 0.03 0.13 0.05 92 1006.3
20260506104605 11 270 11.3 16.1 0.00 0.10 0.03 91 1006.3
20260506103052 12 291 9.7 14.5 0.00 0.10 0.03 89 1006.3
20260506101555 12 303 3.2 8.0 0.00 0.10 0.03 86 1006.3
20260506100046 12 332 1.6 8.0 0.03 0.10 0.03 88 1006.2
20260506094552 12 305 0.0 0.0 0.03 0.10 0.03 87 1006.2
20260506093047 12 316 1.6 3.2 0.03 0.10 0.03 87 1006.3
20260506091542 12 346 0.0 0.0 0.03 0.10 0.03 87 1006.2
20260506090043 12 309 1.6 4.8 0.00 0.08 0.00 86 1006.1
20260506084539 12 67 0.0 0.0 0.00 0.08 0.00 85 1006.1
20260506083041 11 68 0.0 0.0 0.00 0.08 0.00 84 1005.9
20260506081538 12 81 0.0 0.0 0.00 0.08 0.00 86 1006.0
20260506073042 11 49 3.2 6.4 0.00 0.08 0.00 89 1006.1
20260506071541 12 49 0.0 4.8 0.00 0.08 0.00 90 1005.9
20260506061522 10 190 0.0 0.0 0.00 0.08 0.00 94 1006.0
20260506044509 8 300 1.6 4.8 0.00 0.08 0.00 93 1006.2
20260506043002 8 306 3.2 4.8 0.00 0.08 0.00 93 1006.1
20260506041608 8 213 0.0 1.6 0.00 0.08 0.00 92 1006.1
20260506040058 8 214 0.0 0.0 0.00 0.08 0.00 92 1006.2
20260506034557 9 214 0.0 3.2 0.00 0.08 0.00 92 1006.5
20260506033105 9 214 0.0 3.2 0.00 0.08 0.00 91 1006.5
20260506031557 9 214 0.0 1.6 0.00 0.08 0.00 90 1006.6
20260506030052 10 229 0.0 6.4 0.00 0.08 0.00 90 1006.8
20260506024549 10 229 3.2 8.0 0.00 0.08 0.00 89 1007.0
20260506023051 10 259 6.4 14.5 0.00 0.08 0.00 89 1007.0
20260506021553 10 218 6.4 19.3 0.00 0.08 0.00 89 1007.1
20260506020046 10 276 14.5 22.5 0.00 0.08 0.00 88 1007.2
20260506014550 10 272 14.5 20.9 0.00 0.08 0.00 89 1007.5
20260506013041 10 265 12.9 19.3 0.00 0.08 0.00 89 1007.6
20260506011541 10 288 8.0 14.5 0.00 0.08 0.00 90 1007.9
20260506010037 10 220 8.0 12.9 0.00 0.08 0.00 93 1008.0
20260506004541 9 235 1.6 4.8 0.00 0.08 0.00 91 1008.2
20260506003033 9 237 3.2 6.4 0.00 0.08 0.00 91 1008.3
20260506001534 10 237 4.8 9.7 0.00 0.08 0.00 90 1008.4
20260506000039 10 218 6.4 14.5 0.00 0.08 0.00 90 1008.5
20260505234530 10 252 8.0 16.1 0.00 0.08 0.00 91 1008.5
20260505233027 10 255 6.4 11.3 0.00 0.08 0.00 92 1008.6
20260505231524 10 232 4.8 12.9 0.00 0.08 0.00 94 1008.7
20260505230020 9 201 4.8 8.0 0.00 0.08 0.00 93 1008.9
20260505224519 9 307 1.6 4.8 0.00 0.08 0.00 94 1008.9
20260505223014 9 220 0.0 6.4 0.00 0.08 0.00 94 1008.8
20260505221513 9 199 3.2 6.4 0.00 0.08 0.00 93 1008.8
20260505220024 9 196 3.2 6.4 0.00 0.08 0.08 93 1009.0
20260505214516 9 193 4.8 6.4 0.00 0.08 0.08 92 1009.1
20260505213010 10 201 1.6 4.8 0.00 0.08 0.08 92 1009.2
20260505211509 10 207 3.2 4.8 0.00 0.08 0.08 92 1009.2
20260505210009 10 204 3.2 6.4 0.00 0.08 0.08 93 1009.2
20260505204515 10 197 4.8 8.0 0.00 0.08 0.08 93 1009.3
20260505203008 10 192 4.8 6.4 0.00 0.08 0.08 93 1009.3
20260505201507 10 208 4.8 9.7 0.00 0.08 0.08 93 1009.0
20260505200009 10 202 4.8 9.7 0.00 0.08 0.08 93 1009.1
20260505194507 10 196 4.8 8.0 0.00 0.08 0.08 92 1009.0
20260505193017 10 217 6.4 9.7 0.00 0.08 0.08 92 1008.9
20260505191504 10 203 4.8 8.0 0.00 0.08 0.08 90 1008.6
20260505190011 11 178 1.6 6.4 0.00 0.08 0.08 90 1008.6
20260505184503 11 192 4.8 9.7 0.00 0.08 0.08 90 1008.5
20260505183004 12 201 6.4 14.5 0.00 0.08 0.08 90 1008.5
20260505181501 12 200 6.4 16.1 0.00 0.08 0.08 90 1008.6
20260505180001 12 179 1.6 9.7 0.00 0.08 0.08 91 1008.7
20260505174601 11 131 4.8 9.7 0.00 0.08 0.08 92 1008.6
20260505173101 11 142 4.8 12.9 0.00 0.08 0.08 92 1008.7
20260505171559 11 142 4.8 14.5 0.05 0.08 0.08 92 1008.4
20260505170109 11 180 3.2 8.0 0.05 0.08 0.08 93 1008.3
20260505164559 11 265 3.2 11.3 0.05 0.13 0.08 92 1008.1
20260505163107 11 264 6.4 16.1 0.05 0.10 0.05 92 1008.0
20260505161557 11 259 11.3 20.9 0.03 0.08 0.05 89 1008.2
20260505153107 12 256 17.7 35.4 0.03 0.08 0.03 85 1007.9
20260505151555 12 241 22.5 33.8 0.03 0.08 0.03 83 1007.8
20260505150111 14 272 24.1 43.5 0.00 0.05 0.00 79 1007.7